FENGYUN 1C DEB, 41008

Orbit data source: Space-Track

FENGYUN 1C DEB, 41008 is space debris in SSO originally from a launch on Mon, 10 May 1999 UTC launched from the Taiyaun Space Center, China (TSC). Fengyun 1C debris stems from the Chinese weather satellite Fengyun-1C, which was intentionally destroyed by a Chinese anti-satellite missile in 2007. This event dramatically increased the amount of space debris, with thousands of trackable fragments posing hazards to satellites and human spaceflight. The Fengyun 1C debris cloud has become a focal point in discussions about space sustainability and the need for international regulations to prevent the creation of new debris.

Loading next visibility...
Identifier
41008, 1999-025EXN
Orbit
SSO
Country
Flag of CNCN / PRC
Related business
Manufacturer
Unknown
Mission
Spacecraft
Bus & Motor
Unknown
Mass
Unknown
Launch date (UTC)
1999-05-10 (27 years ago)
Launch vehicle
Unknown
Launch site
Taiyaun Space Center, China (TSC)
Object type
Payload
Rocket body
Debris
Shape & HBR
Unknown shape, 0.1 m
Radar Cross Section
Small (<0.1 m²)

Expand to show TLE details & history
Last TLE update: 2 months ago

TLE from 2 months ago
0 FENGYUN 1C DEB
1 41008U 99025EXN 25291.18743080  .00001071  00000-0  63625-3 0  9992
2 41008  99.3097  85.7025 0502679 299.1669  56.0061 13.60752587556895
Epoch: 2025-10-18T04:29Z
TLE epoch observation values (Epoch: 2025-10-18T04:29:54.021Z)
Latitude
-0.00006°
Longitude
-8.69462°
Altitude
840.881 km
Speed
7.529 km/s
True Right ascension
05h 42m 48s
True Declination
0° 00' 00"
Sunlit
Object was in daylight at epoch
Visualization orbit readout
Latitude
Unknown
Longitude
Unknown
Altitude
Unknown
Speed
Unknown
Apparent Right ascension
Unknown
Apparent Declination
Unknown
Sunlit
N/A
Visualization observer readout
Local Sidereal Time
08:03:54
Azimuth
Unknown
Elevation
Unknown
Doppler factor
Unknown
Orbital elements
Apogee altitude
1,402.617 km
Perigee altitude
657.813 km
Semi-major axis
7,408.352 km
Eccentricity
0.05027
Inclination
99.3097°
RAAN
85.7025°
Arg. of periapsis
299.1669°
True anomaly
60.94939°
Mean anomaly
56.0061°
Eccentric anomaly
58.46079°
Mean motion
3.40377 °/min
Orbital period
105.76 mins
BSTAR
0.00063625
Loading maneuver chart data...
Computing Atmospheric mass density...

Documentation

Showing up to 5 results
|